Regional Weather Roundup
Issued by NWS

Home | Current Version | Previous Version | Graphics & Text | Print | Product List | Glossary On
Versions: 1 2 3 4 5 6 7 8 9 10 11 12 13 14 15 16 17 18 19 20 21 22 23 24 25 26 27 28 29 30 31 32 33 34 35 36 37 38 39 40 41 42 43 44 45 46 47 48 49 50
692
ASUS43 KIND 211709
RWRIN

WEATHER ROUNDUP FOR INDIANA
NATIONAL WEATHER SERVICE INDIANAPOLIS IN
1200 PM EST SAT JAN 21 2017

NOTE: "FAIR" INDICATES FEW OR NO CLOUDS BELOW 12,000 FEET WITH NO
SIGNIFICANT WEATHER AND/OR OBSTRUCTIONS TO VISIBILITY.

* - STATION DOES NOT REPORT WEATHER SUCH AS PRECIPITATION OR FOG.

+ - STATION NOT QUALITY CONTROLLED BY THE NATIONAL WEATHER SERVICE.
    USE DATA WITH CAUTION...ESPECIALLY DEWPOINT AND RELATIVE
    HUMIDITY OBSERVATIONS.

INZ001>003-010>013-019-020-211800-
NORTHWEST INDIANA

CITY           SKY/WX    TMP DP  RH WIND       PRES   REMARKS
GARY /AIRPORT/ MOSUNNY   57  48  72 S9        29.54F
KNOX *+        SUNNY     55  34  44 S14G20    29.57F
LA PORTE +     SUNNY     54  50  85 S9G16     29.56F
MICHIGAN CITY+ SUNNY     55  52  88 S8        29.56F
MONTICELLO +   MOSUNNY   56  50  79 S9        29.58F
RENSSELAER +   SUNNY     55  52  88 S15       29.56F
VALPARAISO     SUNNY     57  51  80 S13       29.56F

$$

LMZ046-743>745-211800-
SOUTHERN LAKE MICHIGAN

STATION/POSITION TIME  TEMP    WIND        PRES    WAVE
                       AIR SEA DIR/SP/G            HT
                 (UTC) (F)     (DEG/KT/KT) (MB)    (FT)
BURNS HARBOR     1640   54     180/ 14/ 19 1001.4F
MICHIGAN CITY    1640   54     150/ 12/ 15   N/A

$$

INZ004-005-014>016-021>024-211800-
NORTH CENTRAL INDIANA

CITY           SKY/WX    TMP DP  RH WIND       PRES   REMARKS
ELKHART        SUNNY     55  50  82 S12       29.58F
GOSHEN         SUNNY     57  49  74 S12       29.59F
LOGANSPORT +   CLOUDY    55  50  82 S12       29.60F
PERU/GRISSOM   CLOUDY    57  55  93 S13       29.59F
ROCHESTER +    SUNNY     57  52  82 S7        29.60F
SOUTH BEND     SUNNY     56  50  80 S9        29.59F
WARSAW +       SUNNY     54  46  76 S8        29.61S

$$

INZ006>009-017-018-025>027-211800-
NORTHEAST INDIANA

CITY           SKY/WX    TMP DP  RH WIND       PRES   REMARKS
ANGOLA *+      MOSUNNY   55  54  94 S12       29.59F
AUBURN +       SUNNY     57  50  77 S5        29.63F
FORT WAYNE     PTSUNNY   57  51  80 S14       29.63F
HUNTINGTON +   SUNNY     56  52  86 S8        29.62F
KENDALLVILLE + SUNNY     55  52  89 S8        29.61F

$$

INZ028-029-035-036-043>045-051>053-211800-
WEST CENTRAL INDIANA

CITY           SKY/WX    TMP DP  RH WIND       PRES   REMARKS
CRAWFORDSVL +  MOSUNNY   56  56  99 S10       29.61S
GREENCASTLE +  CLOUDY    57  52  82 S13G20    29.63S
LAFAYETTE      MOSUNNY   57  52  83 S5        29.58F
TERRE HAUTE    MOSUNNY   58  52  80 S15       29.61F

$$

INZ030>032-037>040-046>048-054>057-064-065-211800-
CENTRAL INDIANA

CITY           SKY/WX    TMP DP  RH WIND       PRES   REMARKS
CP ATTERBURY + CLOUDY    57  52  82 SE5       29.66F
COLUMBUS       SUNNY     55  54  94 S7        29.67F
FRANKFORT +    CLOUDY    59  54  83 S10G17    29.62F
GREENWOOD *+   CLOUDY    57  54  89 S9        29.66S
INDIANAPOLIS   PTSUNNY   58  51  78 S14       29.64R
-EAGLE CREEK   MOSUNNY   59  51  75 S12       29.63S
KOKOMO +       MOSUNNY   56  52  86 S12       29.62F
MARION +       CLOUDY    55  52  88 S13       29.63F
MT COMFORT *+  MOSUNNY   55  52  88 S15       29.65S
SHELBYVILLE    MOSUNNY   58  51  78 S14       29.65S
ZIONSVILLE +   MOSUNNY   56  51  82 S13       29.63S

$$

INZ033-034-041-042-049-050-058-059-211800-
EAST CENTRAL INDIANA

CITY           SKY/WX    TMP DP  RH WIND       PRES   REMARKS
MUNCIE         CLOUDY    58  51  78 S12       29.64F

$$

INZ060-061-067>069-081>083-085>088-211800-
SOUTHWEST INDIANA

CITY           SKY/WX    TMP DP  RH WIND       PRES   REMARKS
EVANSVILLE     CLOUDY    62  53  72 SW10G18   29.66S
HUNTINGBURG *+ CLOUDY    60  54  80 S10       29.66S
WASHINGTON +   MOSUNNY   60  54  79 S9        29.64S

$$

INZ062-063-066-070>080-084-089>092-211800-
SOUTH CENTRAL AND SOUTHEAST INDIANA

CITY           SKY/WX    TMP DP  RH WIND       PRES   REMARKS
BLOOMINGTON    MOSUNNY   59  52  77 S8        29.64F
MADISON *+     CLOUDY    57  52  82 SE6       29.69F
NORTH VERNON + CLOUDY   N/A N/A N/A S8        29.68F
SEYMOUR +      CLOUDY    59  54  82 SE7       29.66F

$$





USA.gov is the U.S. government's official web portal to all federal, state and local government web resources and services.